Time,TemperatureF,DewpointF,PressureIn,WindDirection,WindDirectionDegrees,WindSpeedMPH,WindSpeedGustMPH,Humidity,HourlyPrecipIn,Conditions,Clouds,dailyrainin,SoftwareType,DateUTC
2013-04-08 00:02:00,38.3,37.5,29.26,SW,233,2.4,4.0,97,-99.99,,,-99.99,WSDL version 423,2013-04-08 04:02:00,
2013-04-08 00:09:00,38.4,37.5,29.26,SW,223,1.8,6.0,97,-99.99,,,-99.99,WSDL version 423,2013-04-08 04:09:00,
2013-04-08 00:19:00,38.2,37.4,29.26,SW,235,1.4,3.4,97,-99.99,,,-99.99,WSDL version 423,2013-04-08 04:19:00,
2013-04-08 00:24:00,38.1,37.1,29.26,WSW,250,0.7,3.4,96,-99.99,,,-99.99,WSDL version 423,2013-04-08 04:24:00,
2013-04-08 00:29:00,37.9,36.8,29.26,West,262,2.2,4.3,96,-99.99,,,-99.99,WSDL version 423,2013-04-08 04:29:00,
2013-04-08 00:34:00,37.9,36.9,29.29,SW,215,2.2,4.3,97,-99.99,,,-99.99,WSDL version 423,2013-04-08 04:34:00,
2013-04-08 00:39:00,38.0,36.9,29.29,SSW,197,2.7,6.5,96,-99.99,,,-99.99,WSDL version 423,2013-04-08 04:39:00,
2013-04-08 00:49:00,37.9,36.8,29.29,South,175,1.7,7.6,96,-99.99,,,-99.99,WSDL version 423,2013-04-08 04:49:00,
2013-04-08 00:54:00,37.9,36.5,29.29,SSW,203,2.7,3.8,94,-99.99,,,-99.99,WSDL version 423,2013-04-08 04:54:00,
2013-04-08 00:59:00,37.9,36.4,29.29,SW,215,2.8,5.8,93,-99.99,,,-99.99,WSDL version 423,2013-04-08 04:59:00,
2013-04-08 01:04:00,38.1,36.3,29.32,SW,231,3.4,5.8,92,-99.99,,,-99.99,WSDL version 423,2013-04-08 05:04:00,
2013-04-08 01:14:00,37.8,35.4,29.32,WNW,289,1.9,4.3,90,-99.99,,,-99.99,WSDL version 423,2013-04-08 05:14:00,
2013-04-08 01:19:00,37.8,35.1,29.32,SW,228,3.3,5.4,90,-99.99,,,-99.99,WSDL version 423,2013-04-08 05:19:00,
2013-04-08 01:24:00,37.6,34.7,29.32,SW,217,2.4,5.4,89,-99.99,,,-99.99,WSDL version 423,2013-04-08 05:24:00,
2013-04-08 01:29:00,37.5,34.5,29.32,SW,231,1.3,4.3,89,-99.99,,,-99.99,WSDL version 423,2013-04-08 05:29:00,
2013-04-08 01:34:00,37.3,34.3,29.32,SW,218,1.2,3.8,89,-99.99,,,-99.99,WSDL version 423,2013-04-08 05:34:00,
2013-04-08 01:39:00,37.2,34.5,29.32,SW,228,1.2,3.6,90,-99.99,,,-99.99,WSDL version 423,2013-04-08 05:39:00,
2013-04-08 01:44:00,37.0,34.3,29.32,SW,219,1.8,3.1,90,-99.99,,,-99.99,WSDL version 423,2013-04-08 05:44:00,
2013-04-08 01:49:00,37.0,34.4,29.32,WSW,248,3.4,5.8,90,-99.99,,,-99.99,WSDL version 423,2013-04-08 05:49:00,
2013-04-08 01:54:00,37.0,34.4,29.32,SW,231,2.0,5.8,90,-99.99,,,-99.99,WSDL version 423,2013-04-08 05:54:00,
2013-04-08 01:59:00,37.0,34.2,29.32,WNW,284,1.2,5.6,89,-99.99,,,-99.99,WSDL version 423,2013-04-08 05:59:00,
2013-04-08 02:09:00,37.0,34.0,29.32,WSW,243,0.2,5.4,89,-99.99,,,-99.99,WSDL version 423,2013-04-08 06:09:00,
2013-04-08 02:14:00,36.9,33.9,29.32,NNE,31,1.0,5.4,89,-99.99,,,-99.99,WSDL version 423,2013-04-08 06:14:00,
2013-04-08 02:19:00,36.7,33.7,29.32,SSE,166,0.7,3.4,89,-99.99,,,-99.99,WSDL version 423,2013-04-08 06:19:00,
2013-04-08 02:29:00,36.5,33.5,29.32,SW,220,0.6,5.8,89,-99.99,,,-99.99,WSDL version 423,2013-04-08 06:29:00,
2013-04-08 02:34:00,36.4,33.4,29.35,WSW,250,2.0,4.0,89,-99.99,,,-99.99,WSDL version 423,2013-04-08 06:34:00,
2013-04-08 02:39:00,36.3,33.4,29.35,WSW,238,1.1,4.0,89,-99.99,,,-99.99,WSDL version 423,2013-04-08 06:39:00,
2013-04-08 02:44:00,36.3,33.3,29.35,SW,236,0.0,2.5,89,-99.99,,,-99.99,WSDL version 423,2013-04-08 06:44:00,
2013-04-08 02:54:00,36.1,33.2,29.35,SW,223,1.2,3.1,89,-99.99,,,-99.99,WSDL version 423,2013-04-08 06:54:00,
2013-04-08 02:59:00,36.1,33.2,29.35,WNW,289,0.0,2.7,89,-99.99,,,-99.99,WSDL version 423,2013-04-08 06:59:00,
2013-04-08 03:04:00,36.0,33.0,29.35,SSW,213,1.0,2.2,89,-99.99,,,-99.99,WSDL version 423,2013-04-08 07:04:00,
2013-04-08 03:14:00,35.8,32.8,29.35,SSW,213,0.0,0.0,89,-99.99,,,-99.99,WSDL version 423,2013-04-08 07:14:00,
2013-04-08 03:19:00,35.7,32.8,29.38,SSW,194,0.0,0.0,89,-99.99,,,-99.99,WSDL version 423,2013-04-08 07:19:00,
2013-04-08 03:24:00,35.6,32.3,29.38,SSW,208,0.0,0.0,88,-99.99,,,-99.99,WSDL version 423,2013-04-08 07:24:00,
2013-04-08 03:29:00,35.6,32.3,29.38,SW,233,0.0,0.0,88,-99.99,,,-99.99,WSDL version 423,2013-04-08 07:29:00,
2013-04-08 03:39:00,35.5,32.4,29.38,WSW,243,0.0,1.6,88,-99.99,,,-99.99,WSDL version 423,2013-04-08 07:39:00,
2013-04-08 03:44:00,35.6,32.3,29.38,SW,225,0.0,1.6,88,-99.99,,,-99.99,WSDL version 423,2013-04-08 07:44:00,
2013-04-08 03:54:00,35.6,32.3,29.38,WSW,243,0.0,2.5,88,-99.99,,,-99.99,WSDL version 423,2013-04-08 07:54:00,
2013-04-08 03:59:00,35.6,32.3,29.38,SW,219,0.0,0.0,88,-99.99,,,-99.99,WSDL version 423,2013-04-08 07:59:00,
2013-04-08 04:04:00,35.4,32.2,29.38,SW,235,0.0,0.0,88,-99.99,,,-99.99,WSDL version 423,2013-04-08 08:04:00,
2013-04-08 04:09:00,35.5,32.1,29.38,SW,236,0.4,1.6,87,-99.99,,,-99.99,WSDL version 423,2013-04-08 08:09:00,
2013-04-08 04:19:00,35.6,32.0,29.38,SSW,203,0.0,1.6,87,-99.99,,,-99.99,WSDL version 423,2013-04-08 08:19:00,
2013-04-08 04:24:00,35.5,31.9,29.38,SW,223,0.0,0.0,87,-99.99,,,-99.99,WSDL version 423,2013-04-08 08:24:00,
2013-04-08 04:29:00,35.4,31.8,29.38,SSW,213,0.0,0.9,87,-99.99,,,-99.99,WSDL version 423,2013-04-08 08:29:00,
2013-04-08 04:34:00,35.3,31.7,29.38,SW,225,0.0,0.9,87,-99.99,,,-99.99,WSDL version 423,2013-04-08 08:34:00,
2013-04-08 04:39:00,35.2,31.8,29.38,SW,225,0.0,2.2,88,-99.99,,,-99.99,WSDL version 423,2013-04-08 08:39:00,
2013-04-08 04:49:00,35.1,31.8,29.38,South,183,0.0,1.3,88,-99.99,,,-99.99,WSDL version 423,2013-04-08 08:49:00,
2013-04-08 04:54:00,35.1,31.8,29.38,WSW,242,0.0,0.0,88,-99.99,,,-99.99,WSDL version 423,2013-04-08 08:54:00,
2013-04-08 04:59:00,35.1,31.8,29.38,West,270,0.0,0.0,88,-99.99,,,-99.99,WSDL version 423,2013-04-08 08:59:00,
2013-04-08 05:11:00,35.0,31.7,29.41,West,259,0.0,1.6,88,-99.99,,,-99.99,WSDL version 423,2013-04-08 09:11:00,
2013-04-08 05:16:00,34.9,31.6,29.41,SW,218,0.4,2.5,88,-99.99,,,-99.99,WSDL version 423,2013-04-08 09:16:00,
2013-04-08 05:28:00,35.1,31.8,29.41,SW,233,0.0,2.5,88,-99.99,,,-99.99,WSDL version 423,2013-04-08 09:28:00,
2013-04-08 05:33:00,35.0,31.7,29.41,SW,225,0.0,1.6,88,-99.99,,,-99.99,WSDL version 423,2013-04-08 09:33:00,
2013-04-08 05:38:00,34.9,31.5,29.41,SW,225,0.0,0.0,87,-99.99,,,-99.99,WSDL version 423,2013-04-08 09:38:00,
2013-04-08 05:43:00,34.8,31.4,29.41,SW,225,0.0,0.0,88,-99.99,,,-99.99,WSDL version 423,2013-04-08 09:43:00,
2013-04-08 05:48:00,34.7,31.5,29.41,NW,326,0.0,0.0,88,-99.99,,,-99.99,WSDL version 423,2013-04-08 09:48:00,
2013-04-08 05:58:00,34.7,31.5,29.41,WSW,248,0.0,0.0,88,-99.99,,,-99.99,WSDL version 423,2013-04-08 09:58:00,
2013-04-08 06:03:00,34.7,31.5,29.41,WSW,239,0.0,0.0,88,-99.99,,,-99.99,WSDL version 423,2013-04-08 10:03:00,
2013-04-08 06:08:00,34.6,31.3,29.41,SW,218,0.0,0.0,88,-99.99,,,-99.99,WSDL version 423,2013-04-08 10:08:00,
2013-04-08 06:13:00,34.5,31.3,29.41,WSW,248,0.0,0.0,88,-99.99,,,-99.99,WSDL version 423,2013-04-08 10:13:00,
2013-04-08 06:18:00,34.5,31.3,29.44,SW,215,0.0,0.9,88,-99.99,,,-99.99,WSDL version 423,2013-04-08 10:18:00,
2013-04-08 06:28:00,34.5,31.3,29.44,SW,223,0.0,0.0,88,-99.99,,,-99.99,WSDL version 423,2013-04-08 10:28:00,
2013-04-08 06:38:00,34.7,31.6,29.44,SW,233,0.0,1.3,89,-99.99,,,-99.99,WSDL version 423,2013-04-08 10:38:00,
2013-04-08 06:48:00,34.9,31.9,29.44,SW,225,0.0,0.0,89,-99.99,,,-99.99,WSDL version 423,2013-04-08 10:48:00,
2013-04-08 06:58:00,35.1,32.1,29.44,SW,225,0.0,0.0,89,-99.99,,,-99.99,WSDL version 423,2013-04-08 10:58:00,
2013-04-08 07:03:00,35.2,32.2,29.44,WSW,245,1.0,2.0,89,-99.99,,,-99.99,WSDL version 423,2013-04-08 11:03:00,
2013-04-08 07:08:00,35.3,32.3,29.44,SW,225,0.0,2.0,88,-99.99,,,-99.99,WSDL version 423,2013-04-08 11:08:00,
2013-04-08 07:13:00,35.5,32.3,29.44,West,267,0.0,0.0,88,-99.99,,,-99.99,WSDL version 423,2013-04-08 11:13:00,
2013-04-08 07:18:00,35.7,32.4,29.47,SW,231,0.0,1.1,88,-99.99,,,-99.99,WSDL version 423,2013-04-08 11:18:00,
2013-04-08 07:23:00,35.8,32.5,29.47,WSW,248,0.0,1.1,87,-99.99,,,-99.99,WSDL version 423,2013-04-08 11:23:00,
2013-04-08 07:28:00,36.1,32.5,29.47,WSW,242,0.0,0.0,87,-99.99,,,-99.99,WSDL version 423,2013-04-08 11:28:00,
2013-04-08 07:33:00,36.3,32.7,29.47,SW,217,0.0,1.6,87,-99.99,,,-99.99,WSDL version 423,2013-04-08 11:33:00,
2013-04-08 07:38:00,36.6,33.0,29.47,North,349,0.0,1.6,87,-99.99,,,-99.99,WSDL version 423,2013-04-08 11:38:00,
2013-04-08 07:43:00,36.7,32.9,29.47,West,270,0.0,2.5,86,-99.99,,,-99.99,WSDL version 423,2013-04-08 11:43:00,
2013-04-08 07:53:00,37.1,32.8,29.50,NNE,15,0.5,2.9,83,-99.99,,,-99.99,WSDL version 423,2013-04-08 11:53:00,
2013-04-08 07:58:00,37.3,32.5,29.50,SW,228,0.0,2.0,82,-99.99,,,-99.99,WSDL version 423,2013-04-08 11:58:00,
2013-04-08 08:03:00,37.4,32.3,29.50,NNW,345,0.2,1.6,81,-99.99,,,-99.99,WSDL version 423,2013-04-08 12:03:00,
2013-04-08 08:08:00,37.4,31.9,29.50,North,360,1.3,2.5,80,-99.99,,,-99.99,WSDL version 423,2013-04-08 12:08:00,
2013-04-08 08:18:00,37.7,31.8,29.50,NNE,18,0.9,2.9,79,-99.99,,,-99.99,WSDL version 423,2013-04-08 12:18:00,
2013-04-08 08:23:00,37.8,31.7,29.50,North,357,1.6,2.9,78,-99.99,,,-99.99,WSDL version 423,2013-04-08 12:23:00,
2013-04-08 08:33:00,38.1,31.9,29.50,NNE,17,0.1,2.9,78,-99.99,,,-99.99,WSDL version 423,2013-04-08 12:33:00,
2013-04-08 08:38:00,38.4,32.2,29.50,WSW,248,0.2,2.0,78,-99.99,,,-99.99,WSDL version 423,2013-04-08 12:38:00,
2013-04-08 08:43:00,38.8,32.3,29.50,NNE,23,1.5,2.9,77,-99.99,,,-99.99,WSDL version 423,2013-04-08 12:43:00,
2013-04-08 08:50:00,39.5,32.7,29.50,North,350,0.5,2.9,76,-99.99,,,-99.99,WSDL version 423,2013-04-08 12:50:00,
2013-04-08 08:55:00,39.8,32.5,29.50,NNW,343,0.0,2.2,75,-99.99,,,-99.99,WSDL version 423,2013-04-08 12:55:00,
2013-04-08 09:00:00,40.0,32.5,29.50,WNW,284,0.3,2.5,74,-99.99,,,-99.99,WSDL version 423,2013-04-08 13:00:00,
2013-04-08 09:05:00,40.4,32.7,29.50,North,3,0.1,2.7,73,-99.99,,,-99.99,WSDL version 423,2013-04-08 13:05:00,
2013-04-08 09:10:00,40.5,32.0,29.50,NNE,25,1.0,2.7,70,-99.99,,,-99.99,WSDL version 423,2013-04-08 13:10:00,
2013-04-08 09:15:00,40.7,31.9,29.50,NNE,17,0.0,2.5,71,-99.99,,,-99.99,WSDL version 423,2013-04-08 13:15:00,
2013-04-08 09:25:00,40.6,30.6,29.53,NNW,338,0.0,2.9,67,-99.99,,,-99.99,WSDL version 423,2013-04-08 13:25:00,
2013-04-08 09:30:00,40.6,30.4,29.53,NNW,348,1.1,2.7,66,-99.99,,,-99.99,WSDL version 423,2013-04-08 13:30:00,
2013-04-08 09:35:00,40.6,29.5,29.53,North,6,2.3,3.8,62,-99.99,,,-99.99,WSDL version 423,2013-04-08 13:35:00,
2013-04-08 09:40:00,40.5,28.2,29.53,North,11,0.4,3.8,62,-99.99,,,-99.99,WSDL version 423,2013-04-08 13:40:00,
2013-04-08 09:45:00,40.3,28.2,29.53,West,273,1.8,3.6,61,-99.99,,,-99.99,WSDL version 423,2013-04-08 13:45:00,
2013-04-08 09:50:00,40.3,28.1,29.56,North,358,2.4,3.6,61,-99.99,,,-99.99,WSDL version 423,2013-04-08 13:50:00,
2013-04-08 09:55:00,40.5,28.8,29.56,WNW,290,0.1,3.1,63,-99.99,,,-99.99,WSDL version 423,2013-04-08 13:55:00,
2013-04-08 10:05:00,40.9,28.8,29.56,North,3,1.3,3.1,61,-99.99,,,-99.99,WSDL version 423,2013-04-08 14:05:00,
2013-04-08 10:10:00,40.9,28.1,29.56,NE,34,1.6,3.1,60,-99.99,,,-99.99,WSDL version 423,2013-04-08 14:10:00,
2013-04-08 17:39:00,46.6,23.9,29.50,WSW,238,0.8,2.5,41,-99.99,,,-99.99,WSDL version 423,2013-04-08 21:39:00,
2013-04-08 17:44:00,46.5,24.1,29.50,NNW,341,1.0,2.5,41,-99.99,,,-99.99,WSDL version 423,2013-04-08 21:44:00,
2013-04-08 17:49:00,46.2,23.8,29.53,NE,38,0.7,2.5,41,-99.99,,,-99.99,WSDL version 423,2013-04-08 21:49:00,
2013-04-08 17:54:00,46.0,23.6,29.53,North,354,1.9,3.4,41,-99.99,,,-99.99,WSDL version 423,2013-04-08 21:54:00,
2013-04-08 17:59:00,45.6,23.4,29.53,NNE,23,1.7,3.4,41,-99.99,,,-99.99,WSDL version 423,2013-04-08 21:59:00,
2013-04-08 18:09:00,44.9,23.2,29.53,NNE,17,0.9,3.6,42,-99.99,,,-99.99,WSDL version 423,2013-04-08 22:09:00,
2013-04-08 18:18:00,44.4,23.2,29.53,North,8,1.8,3.8,43,-99.99,,,-99.99,WSDL version 423,2013-04-08 22:18:00,
2013-04-08 18:23:00,44.0,23.1,29.53,NNW,347,0.0,3.8,44,-99.99,,,-99.99,WSDL version 423,2013-04-08 22:23:00,
2013-04-08 18:28:00,43.7,23.2,29.53,NNE,18,0.0,2.7,44,-99.99,,,-99.99,WSDL version 423,2013-04-08 22:28:00,
2013-04-08 18:33:00,43.5,23.3,29.53,NNE,20,1.4,2.5,45,-99.99,,,-99.99,WSDL version 423,2013-04-08 22:33:00,
2013-04-08 18:38:00,43.1,23.5,29.53,NNE,17,1.1,2.7,46,-99.99,,,-99.99,WSDL version 423,2013-04-08 22:38:00,
2013-04-08 18:44:00,42.7,23.7,29.53,ENE,60,0.4,2.7,47,-99.99,,,-99.99,WSDL version 423,2013-04-08 22:44:00,
2013-04-08 18:53:00,42.2,23.6,29.50,NNE,23,0.9,2.5,48,-99.99,,,-99.99,WSDL version 423,2013-04-08 22:53:00,
2013-04-08 18:58:00,41.9,23.5,29.50,NNE,13,1.2,2.7,48,-99.99,,,-99.99,WSDL version 423,2013-04-08 22:58:00,
2013-04-08 19:03:00,41.6,23.6,29.50,NE,48,1.1,2.7,49,-99.99,,,-99.99,WSDL version 423,2013-04-08 23:03:00,
2013-04-08 19:08:00,41.3,23.6,29.50,North,350,0.9,2.7,49,-99.99,,,-99.99,WSDL version 423,2013-04-08 23:08:00,
2013-04-08 19:13:00,40.9,23.2,29.50,North,3,0.0,2.0,49,-99.99,,,-99.99,WSDL version 423,2013-04-08 23:13:00,
2013-04-08 19:18:00,40.6,23.3,29.50,NNW,343,1.1,2.5,50,-99.99,,,-99.99,WSDL version 423,2013-04-08 23:18:00,
2013-04-08 19:23:00,40.4,23.4,29.50,NNE,15,2.0,3.6,51,-99.99,,,-99.99,WSDL version 423,2013-04-08 23:23:00,
2013-04-08 19:28:00,40.2,23.9,29.50,SW,233,1.1,4.3,51,-99.99,,,-99.99,WSDL version 423,2013-04-08 23:28:00,
2013-04-08 19:33:00,39.8,23.3,29.50,South,185,0.6,4.3,51,-99.99,,,-99.99,WSDL version 423,2013-04-08 23:33:00,
2013-04-08 19:38:00,39.5,23.1,29.50,NW,309,0.0,2.5,51,-99.99,,,-99.99,WSDL version 423,2013-04-08 23:38:00,
2013-04-08 19:43:00,39.3,23.0,29.50,North,8,0.7,2.2,52,-99.99,,,-99.99,WSDL version 423,2013-04-08 23:43:00,
2013-04-08 19:48:00,38.8,23.2,29.50,NW,315,0.0,2.2,53,-99.99,,,-99.99,WSDL version 423,2013-04-08 23:48:00,
2013-04-08 19:53:00,38.5,22.5,29.50,NNE,23,0.0,0.0,52,-99.99,,,-99.99,WSDL version 423,2013-04-08 23:53:00,
2013-04-08 19:58:00,38.2,23.0,29.50,North,6,1.8,2.9,55,-99.99,,,-99.99,WSDL version 423,2013-04-08 23:58:00,
2013-04-08 20:08:00,38.1,24.3,29.50,North,10,2.2,3.4,58,-99.99,,,-99.99,WSDL version 423,2013-04-09 00:08:00,
2013-04-08 20:13:00,38.0,24.3,29.50,NNW,346,0.0,3.4,57,-99.99,,,-99.99,WSDL version 423,2013-04-09 00:13:00,
2013-04-08 20:18:00,37.8,23.9,29.50,ESE,105,0.1,2.2,57,-99.99,,,-99.99,WSDL version 423,2013-04-09 00:18:00,
2013-04-08 20:23:00,37.7,23.6,29.50,North,10,0.0,2.0,56,-99.99,,,-99.99,WSDL version 423,2013-04-09 00:23:00,
2013-04-08 20:28:00,37.6,23.3,29.50,NNW,345,0.0,1.3,56,-99.99,,,-99.99,WSDL version 423,2013-04-09 00:28:00,
2013-04-08 20:33:00,37.5,23.2,29.50,ENE,78,0.0,1.1,56,-99.99,,,-99.99,WSDL version 423,2013-04-09 00:33:00,
2013-04-08 20:38:00,37.3,23.3,29.50,ENE,70,0.0,0.0,57,-99.99,,,-99.99,WSDL version 423,2013-04-09 00:38:00,
2013-04-08 20:43:00,37.0,23.1,29.50,NNW,346,0.6,1.6,57,-99.99,,,-99.99,WSDL version 423,2013-04-09 00:43:00,
2013-04-08 20:48:00,37.0,23.3,29.50,North,350,0.3,1.6,58,-99.99,,,-99.99,WSDL version 423,2013-04-09 00:48:00,
2013-04-08 20:53:00,37.0,23.8,29.50,North,355,1.5,2.7,60,-99.99,,,-99.99,WSDL version 423,2013-04-09 00:53:00,
2013-04-08 20:58:00,37.2,24.9,29.50,North,354,2.0,3.4,61,-99.99,,,-99.99,WSDL version 423,2013-04-09 00:58:00,
2013-04-08 21:03:00,37.4,25.2,29.50,North,3,1.8,3.4,61,-99.99,,,-99.99,WSDL version 423,2013-04-09 01:03:00,
2013-04-08 21:08:00,37.3,24.7,29.50,ENE,73,0.9,2.9,60,-99.99,,,-99.99,WSDL version 423,2013-04-09 01:08:00,
2013-04-08 21:13:00,37.2,24.8,29.50,North,360,2.3,3.6,61,-99.99,,,-99.99,WSDL version 423,2013-04-09 01:13:00,
2013-04-08 21:18:00,37.1,25.0,29.47,North,350,0.2,3.6,61,-99.99,,,-99.99,WSDL version 423,2013-04-09 01:18:00,
2013-04-08 21:23:00,37.0,25.2,29.47,North,349,1.7,2.7,63,-99.99,,,-99.99,WSDL version 423,2013-04-09 01:23:00,
2013-04-08 21:28:00,37.1,25.9,29.47,NNE,23,2.9,5.6,64,-99.99,,,-99.99,WSDL version 423,2013-04-09 01:28:00,
2013-04-08 21:33:00,37.3,26.3,29.47,North,8,3.4,5.6,65,-99.99,,,-99.99,WSDL version 423,2013-04-09 01:33:00,
2013-04-08 21:38:00,37.4,26.6,29.47,North,360,3.4,5.6,65,-99.99,,,-99.99,WSDL version 423,2013-04-09 01:38:00,
2013-04-08 21:43:00,37.4,26.7,29.47,North,360,3.0,6.5,65,-99.99,,,-99.99,WSDL version 423,2013-04-09 01:43:00,
2013-04-08 21:48:00,37.4,26.8,29.47,North,360,3.0,6.5,65,-99.99,,,-99.99,WSDL version 423,2013-04-09 01:48:00,
2013-04-08 21:53:00,37.4,27.2,29.47,North,350,3.3,5.4,66,-99.99,,,-99.99,WSDL version 423,2013-04-09 01:53:00,
2013-04-08 21:58:00,37.4,27.4,29.47,North,349,3.3,7.2,67,-99.99,,,-99.99,WSDL version 423,2013-04-09 01:58:00,
2013-04-08 22:03:00,37.4,27.5,29.47,NNE,13,3.0,7.2,67,-99.99,,,-99.99,WSDL version 423,2013-04-09 02:03:00,
2013-04-08 22:08:00,37.4,27.8,29.47,NNW,338,3.6,6.7,68,-99.99,,,-99.99,WSDL version 423,2013-04-09 02:08:00,
2013-04-08 22:13:00,37.3,27.7,29.47,North,350,2.5,4.3,68,-99.99,,,-99.99,WSDL version 423,2013-04-09 02:13:00,
2013-04-08 22:18:00,37.2,27.9,29.44,NNW,345,2.5,4.9,69,-99.99,,,-99.99,WSDL version 423,2013-04-09 02:18:00,
2013-04-08 22:23:00,37.0,27.5,29.44,North,352,2.2,4.9,68,-99.99,,,-99.99,WSDL version 423,2013-04-09 02:23:00,
2013-04-08 22:28:00,37.0,27.8,29.44,North,350,2.7,5.8,69,-99.99,,,-99.99,WSDL version 423,2013-04-09 02:28:00,
2013-04-08 22:33:00,37.0,27.9,29.44,North,352,3.1,5.8,70,-99.99,,,-99.99,WSDL version 423,2013-04-09 02:33:00,
2013-04-08 22:38:00,37.1,28.2,29.44,NNE,16,3.1,5.6,70,-99.99,,,-99.99,WSDL version 423,2013-04-09 02:38:00,
2013-04-08 22:43:00,37.1,28.2,29.44,North,357,2.8,5.4,70,-99.99,,,-99.99,WSDL version 423,2013-04-09 02:43:00,
2013-04-08 22:48:00,37.0,28.2,29.44,North,8,2.9,4.9,70,-99.99,,,-99.99,WSDL version 423,2013-04-09 02:48:00,
2013-04-08 22:58:00,36.9,28.1,29.44,North,8,2.6,4.9,70,-99.99,,,-99.99,WSDL version 423,2013-04-09 02:58:00,
2013-04-08 23:03:00,36.9,28.0,29.44,North,8,2.1,4.0,70,-99.99,,,-99.99,WSDL version 423,2013-04-09 03:03:00,
2013-04-08 23:08:00,36.7,27.9,29.44,NNE,20,1.6,3.8,70,-99.99,,,-99.99,WSDL version 423,2013-04-09 03:08:00,
2013-04-08 23:13:00,36.6,27.8,29.44,North,357,1.8,3.8,70,-99.99,,,-99.99,WSDL version 423,2013-04-09 03:13:00,
2013-04-08 23:18:00,36.5,27.7,29.44,North,352,2.7,3.4,71,-99.99,,,-99.99,WSDL version 423,2013-04-09 03:18:00,
2013-04-08 23:23:00,36.3,27.7,29.44,North,360,1.4,3.4,71,-99.99,,,-99.99,WSDL version 423,2013-04-09 03:23:00,
2013-04-08 23:28:00,36.3,27.5,29.44,North,350,1.2,2.5,70,-99.99,,,-99.99,WSDL version 423,2013-04-09 03:28:00,
2013-04-08 23:33:00,36.3,27.5,29.41,North,349,1.6,2.9,70,-99.99,,,-99.99,WSDL version 423,2013-04-09 03:33:00,
2013-04-08 23:38:00,36.3,27.5,29.41,NNW,340,1.0,2.9,70,-99.99,,,-99.99,WSDL version 423,2013-04-09 03:38:00,
2013-04-08 23:43:00,36.3,27.3,29.41,NW,321,0.3,2.9,69,-99.99,,,-99.99,WSDL version 423,2013-04-09 03:43:00,
2013-04-08 23:48:00,36.3,27.1,29.41,North,360,0.0,2.5,69,-99.99,,,-99.99,WSDL version 423,2013-04-09 03:48:00,
2013-04-08 23:53:00,36.5,26.9,29.41,North,349,1.6,4.0,68,-99.99,,,-99.99,WSDL version 423,2013-04-09 03:53:00,
2013-04-08 23:58:00,36.6,26.8,29.41,North,10,1.6,4.0,67,-99.99,,,-99.99,WSDL version 423,2013-04-09 03:58:00,